Meteo Giornale » Osservazioni meteo Cile » Santo Domingo
ore: 15:00 - Osservazioni Meteo Santo Domingo
Lat. 33° 38' S Lon. 71° 37' W Alt. 75 metri s.l.m.
19 °C
Poco Nuvoloso
Temp. 24 Ore
10 °C
20 °C
Ovest/Sud-Ovest
13 Km/h
Dew point 7 °C
Umidità 45 %
Visibilità 10 Km
Il sole sorge alle ore 07:05
Il sole tramonta alle ore 18:28
| Data e Ora | Cielo e Fenomeni | T °C | DP °C | Um. % | Pres. hPa | Vis. km | Vento km/h | |
|---|---|---|---|---|---|---|---|---|
| Oggi h: 15:00 | Poco Nuvoloso | 19 | 7 | 45 | 1022 | 10 | O/SO 13 | |
| Oggi h: 14:00 | Poco Nuvoloso | 19 | 6 | 42 | 1023 | 10 | O 13 | |
| Oggi h: 13:00 | Poco Nuvoloso | 20 | 7 | 42 | 1023 | 10 | O 11.1 | |
| Oggi h: 12:00 | Poco Nuvoloso | 19 | 8 | 48 | 1024 | 10 | N 9.3 | |
| Oggi h: 11:00 | Sereno | 19 | 8 | 48 | 1024 | 10 | E/NE 7.4 | |
| Oggi h: 10:00 | Sereno | 17 | 8 | 55 | 1024 | 10 | E 11.1 | |
| Oggi h: 09:00 | Sereno | 15 | 9 | 67 | 1024 | 10 | E 11.1 | |
| Oggi h: 08:00 | Sereno | 13 | 8 | 71 | 1023 | 10 | E/SE 7.4 | |
| Oggi h: 07:00 | Sereno | 11 | 8 | 81 | 1022 | 10 | E 9.3 | |
| Oggi h: 06:00 | Sereno | 11 | 8 | 81 | 1022 | 10 | E/SE 9.3 | |
| Oggi h: 05:00 | Sereno | 10 | 8 | 87 | 1021 | 10 | E/SE 7.4 | |
| Oggi h: 04:00 | Sereno | 11 | 10 | 93 | 1022 | 10 | N 3.7 | |
| Oggi h: 03:00 | Sereno | 12 | 10 | 87 | 1022 | 10 | E/SE 9.3 | |
| Oggi h: 02:00 | Sereno | 12 | 11 | 93 | 1021 | 10 | N 5.5 | |
| Oggi h: 01:00 | Sereno | 11 | 11 | 100 | 1021 | 10 | N 5.5 | |
| Oggi h: 00:00 | Sereno | 11 | 11 | 100 | 1020 | 10 | S 7.4 | |
| Ieri h: 23:00 | Nuvoloso | 12 | 11 | 93 | 1021 | 10 | N 3.7 | |
| Ieri h: 22:00 | Sereno | 12 | 11 | 93 | 1020 | 10 | N 3.7 | |
| Ieri h: 21:00 | Sereno | 11 | 11 | 100 | 1019 | 10 | N 3.7 | |
| Ieri h: 20:00 | Sereno | 12 | 11 | 93 | 1019 | 10 | N 3.7 | |
| Ieri h: 19:00 | Sereno | 13 | 11 | 87 | 1018 | 10 | SO 7.4 | |
| Ieri h: 18:00 | Sereno | 14 | 12 | 87 | 1017 | 10 | N 5.5 | |
| Ieri h: 17:00 | Sereno | 15 | 11 | 76 | 1017 | 10 | N 3.7 | |



